Location: Catacaguana
(10.4120°N, 66.7591°W)
Time: 04:32:48
(UTC+00:00)

OBJECT-B - Pass Details

Date: 27 May 2022
Orbit: 376 x 381 km, 96.9° (Epoch: 08 May)

Event Time Altitude Azimuth Distance (km) Brightness Sun altitude
Exits shadow 00:28:06 31° 302° (WNW) 678 2.4 -24.0°
Drops below altitude 10° 00:29:59 10° 332° (NNW) 1,356 4.1 -24.4°
Sets 00:31:59 0° 340° (NNW) 2,202 5.1 -24.8°
